LZ3SV-3 Weather Reports


time (UTC)temp
C
wind
direction
speed
KPH
gust
KPH
rain 1hr
cm
rain 24hr
cm
rain mn
cm
humidity
%
barometer
mb
20260507140138 28 0.0 0.0 0.00 0.00 0.00 34 989.3
20260507135137 29 0.0 0.0 0.00 0.00 0.00 33 989.5
20260507134136 31 0.0 0.0 0.00 0.00 0.00 40 989.3
20260507132137 30 0.0 0.0 0.00 0.00 0.00 39 989.4
20260507131136 31 0.0 0.0 0.00 0.00 0.00 38 989.5
20260507130136 31 0.0 0.0 0.00 0.00 0.00 37 989.5
20260507125137 30 0.0 0.0 0.00 0.00 0.00 39 989.5
20260507124136 32 0.0 0.0 0.00 0.00 0.00 36 989.6
20260507123137 28 0.0 0.0 0.00 0.00 0.00 41 989.8
20260507122137 28 0.0 0.0 0.00 0.00 0.00 39 989.9
20260507121137 28 0.0 0.0 0.00 0.00 0.00 39 990.0
20260507120136 30 0.0 0.0 0.00 0.00 0.00 37 990.1
20260507115136 31 0.0 0.0 0.00 0.00 0.00 34 990.2
20260507114136 32 0.0 0.0 0.00 0.00 0.00 32 990.4
20260507113136 31 0.0 0.0 0.00 0.00 0.00 34 990.4
20260507110136 29 0.0 0.0 0.00 0.00 0.00 35 990.8
20260507104136 28 0.0 0.0 0.00 0.00 0.00 39 991.0
20260507103136 27 0.0 0.0 0.00 0.00 0.00 41 990.9
20260507101136 25 0.0 0.0 0.00 0.00 0.00 44 991.2
20260507100136 25 0.0 0.0 0.00 0.00 0.00 45 991.2
20260507094137 23 0.0 0.0 0.00 0.00 0.00 47 991.4
20260507093136 23 0.0 0.0 0.00 0.00 0.00 48 991.5
20260507092136 22 0.0 0.0 0.00 0.00 0.00 50 991.6
20260507091136 21 0.0 0.0 0.00 0.00 0.00 52 991.6
20260507085136 21 0.0 0.0 0.00 0.00 0.00 52 991.8
20260507083136 20 0.0 0.0 0.00 0.00 0.00 56 991.8
20260507082136 19 0.0 0.0 0.00 0.00 0.00 58 991.9
20260507081135 18 0.0 0.0 0.00 0.00 0.00 56 992.0
20260507080136 18 0.0 0.0 0.00 0.00 0.00 56 991.9
20260507075136 18 0.0 0.0 0.00 0.00 0.00 57 992.1
20260507074136 17 0.0 0.0 0.00 0.00 0.00 58 992.0
20260507073135 17 0.0 0.0 0.00 0.00 0.00 60 991.9
20260507072135 16 0.0 0.0 0.00 0.00 0.00 62 992.0
20260507071135 16 0.0 0.0 0.00 0.00 0.00 64 991.9
20260507070136 16 0.0 0.0 0.00 0.00 0.00 67 992.0
20260507065135 15 0.0 0.0 0.00 0.00 0.00 71 992.1
20260507064135 15 0.0 0.0 0.00 0.00 0.00 74 992.1
20260507063136 15 0.0 0.0 0.00 0.00 0.00 76 992.2
20260507061135 14 0.0 0.0 0.00 0.00 0.00 75 992.1
20260507060135 13 0.0 0.0 0.00 0.00 0.00 76 992.3
20260507055135 13 0.0 0.0 0.00 0.00 0.00 78 992.1
20260507054135 12 0.0 0.0 0.00 0.00 0.00 80 992.1
20260507053135 12 0.0 0.0 0.00 0.00 0.00 84 992.0
20260507052135 12 0.0 0.0 0.00 0.00 0.00 84 992.0
20260507051135 11 0.0 0.0 0.00 0.00 0.00 86 992.0
20260507050135 11 0.0 0.0 0.00 0.00 0.00 89 991.8
20260507045135 11 0.0 0.0 0.00 0.00 0.00 88 991.8
20260507044136 10 0.0 0.0 0.00 0.00 0.00 91 991.7
20260507043135 10 0.0 0.0 0.00 0.00 0.00 94 991.6
20260507042136 10 0.0 0.0 0.00 0.00 0.00 95 991.6
20260507041135 10 0.0 0.0 0.00 0.00 0.00 99 991.4
20260507040135 9 0.0 0.0 0.00 0.00 0.00 99 991.4
20260507035135 9 0.0 0.0 0.00 0.00 0.00 99 991.1
20260507033135 9 0.0 0.0 0.00 0.00 0.00 98 991.2
20260507032135 9 0.0 0.0 0.00 0.00 0.00 98 990.9
20260507031136 9 0.0 0.0 0.00 0.00 0.00 98 990.9
20260507030135 9 0.0 0.0 0.00 0.00 0.00 98 991.0
20260507025135 9 0.0 0.0 0.00 0.00 0.00 98 990.8
20260507024135 10 0.0 0.0 0.00 0.00 0.00 97 990.7
20260507023135 10 0.0 0.0 0.00 0.00 0.00 95 990.6
20260507021135 10 0.0 0.0 0.00 0.00 0.00 96 990.5
20260507020135 10 0.0 0.0 0.00 0.00 0.00 98 990.6
20260507015135 10 0.0 0.0 0.00 0.00 0.00 96 990.4
20260507014134 10 0.0 0.0 0.00 0.00 0.00 95 990.6
20260507013135 10 0.0 0.0 0.00 0.00 0.00 94 990.5
20260507012134 10 0.0 0.0 0.00 0.00 0.00 95 990.4
20260507011134 10 0.0 0.0 0.00 0.00 0.00 93 990.2
20260507010135 10 0.0 0.0 0.00 0.00 0.00 91 990.4
20260507005134 10 0.0 0.0 0.00 0.00 0.00 90 990.5
20260507003135 10 0.0 0.0 0.00 0.00 0.00 89 990.1
20260507002135 11 0.0 0.0 0.00 0.00 0.00 88 990.0
20260507001135 11 0.0 0.0 0.00 0.00 0.00 88 989.9
20260507000135 11 0.0 0.0 0.00 0.00 0.00 86 989.9
20260506234135 11 0.0 0.0 0.00 0.00 0.00 86 989.9
20260506233134 11 0.0 0.0 0.00 0.00 0.00 86 989.8
20260506232134 11 0.0 0.0 0.00 0.00 0.00 87 989.8
20260506231135 11 0.0 0.0 0.00 0.00 0.00 87 989.7
20260506230135 12 0.0 0.0 0.00 0.00 0.00 81 989.7
20260506225135 12 0.0 0.0 0.00 0.00 0.00 80 989.7
20260506224135 12 0.0 0.0 0.00 0.00 0.00 79 989.6
20260506223135 13 0.0 0.0 0.00 0.00 0.00 79 989.6
20260506222134 13 0.0 0.0 0.00 0.00 0.00 76 989.7
20260506221135 13 0.0 0.0 0.00 0.00 0.00 76 989.6
20260506220140 14 0.0 0.0 0.00 0.00 0.00 73 989.8
20260506215135 15 0.0 0.0 0.00 0.00 0.00 68 989.8
20260506213135 16 0.0 0.0 0.00 0.00 0.00 63 989.6
20260506212135 16 0.0 0.0 0.00 0.00 0.00 63 989.5
20260506211135 16 0.0 0.0 0.00 0.00 0.00 63 989.5
20260506210134 16 0.0 0.0 0.00 0.00 0.00 63 989.5
20260506204135 16 0.0 0.0 0.00 0.00 0.00 62 989.5
20260506203135 17 0.0 0.0 0.00 0.00 0.00 60 989.4
20260506202136 17 0.0 0.0 0.00 0.00 0.00 56 989.3
20260506201135 17 0.0 0.0 0.00 0.00 0.00 55 989.3
20260506200135 18 0.0 0.0 0.00 0.00 0.00 53 989.3
20260506194134 18 0.0 0.0 0.00 0.00 0.00 51 989.1
20260506193133 18 0.0 0.0 0.00 0.00 0.00 51 989.1
20260506192132 19 0.0 0.0 0.00 0.00 0.00 50 988.9
20260506191133 19 0.0 0.0 0.00 0.00 0.00 50 988.8
20260506190133 20 0.0 0.0 0.00 0.00 0.00 49 988.7
20260506185133 20 0.0 0.0 0.00 0.00 0.00 48 988.7
20260506184136 20 0.0 0.0 0.00 0.00 0.00 48 988.5
20260506183130 20 0.0 0.0 0.00 0.00 0.00 47 988.5
20260506182131 20 0.0 0.0 0.00 0.00 0.00 47 988.3
20260506180131 21 0.0 0.0 0.00 0.00 0.00 45 988.1
20260506175130 21 0.0 0.0 0.00 0.00 0.00 44 987.9
20260506174131 22 0.0 0.0 0.00 0.00 0.00 44 988.0
20260506173131 22 0.0 0.0 0.00 0.00 0.00 41 987.8
20260506171131 24 0.0 0.0 0.00 0.00 0.00 37 987.8
20260506165131 27 0.0 0.0 0.00 0.00 0.00 32 987.7
20260506164131 27 0.0 0.0 0.00 0.00 0.00 32 987.7
20260506163130 29 0.0 0.0 0.00 0.00 0.00 28 987.7
20260506161130 32 0.0 0.0 0.00 0.00 0.00 26 987.6
20260506160131 33 0.0 0.0 0.00 0.00 0.00 24 987.5
20260506155131 33 0.0 0.0 0.00 0.00 0.00 23 987.7
20260506154131 34 0.0 0.0 0.00 0.00 0.00 23 987.7
20260506153130 34 0.0 0.0 0.00 0.00 0.00 22 987.7
20260506152130 34 0.0 0.0 0.00 0.00 0.00 22 987.9
20260506151131 34 0.0 0.0 0.00 0.00 0.00 21 987.8
20260506150131 35 0.0 0.0 0.00 0.00 0.00 21 987.9
20260506145131 35 0.0 0.0 0.00 0.00 0.00 21 988.0
20260506144130 34 0.0 0.0 0.00 0.00 0.00 22 988.0
20260506143130 35 0.0 0.0 0.00 0.00 0.00 20 987.9
20260506141130 33 0.0 0.0 0.00 0.00 0.00 21 988.0